Change the Weather History Date:

Saturday, April 27, 2013

  Actual Average Record
Temperature  
Mean Temperature 57 °F 56 °F  
Max Temperature 78 °F 69 °F 97 °F (1911)
Min Temperature 35 °F 42 °F 28 °F (1997)
Degree Days  
Heating Degree Days 9    
Growing Degree Days 6 (Base 50)    
Moisture  
Dew Point 40 °F    
Average Humidity 76    
Maximum Humidity 100    
Minimum Humidity 24    
Precipitation  
Precipitation 0.00 in 0.09 in 0.71 in (2012)
Month to date precipitation 0.24 1.87  
Year to date precipitation 2.22 4.47  
Sea Level Pressure  
Sea Level Pressure 30.10 in    
Wind  
Wind Speed 3 mph (SSW)    
Max Wind Speed 14 mph    
Max Gust Speed 20 mph    
Visibility 5 miles    
Events Fog    
T = Trace of Precipitation, MM = Missing Value Source: NWS Daily Summary

Daily Weather History Graph

Daily Weather History Graph

Search for Another Location

Airport or City:

Trip Planner

Search our weather history database for the weather conditions in past years. The results will help you decide how hot, cold, wet, or windy it might be!

Date:

Astronomy

Apr. 27, 2013 Rise Set
Actual Time 6:45 AM CDT 8:29 PM CDT
Civil Twilight 6:16 AM CDT 8:57 PM CDT
Nautical Twilight 5:41 AM CDT 9:32 PM CDT
Astronomical Twilight 5:04 AM CDT 10:09 PM CDT
Moon 10:59 PM CDT (4/27) 8:05 AM CDT (4/27)
Length of Visible Light 14h 41m
Length of Day
13h 43m
Waning Gibbous, 95% of the Moon is Illuminated
Apr 27
Waning Gibbous
May 2
Last Quarter
May 9
New
May 17
First Quarter
May 24
Full

Hourly Weather History & Observations

Time (CDT) Temp. Windchill Dew Point Humidity Pressure Visibility Wind Dir Wind Speed Gust Speed Precip Events Conditions
12:53 AM 43.0 °F - 41.0 °F 93% 30.18 in 5.0 mi Calm Calm - N/A   Clear
1:28 AM 42.8 °F - 41.0 °F 93% 30.19 in 1.8 mi Calm Calm - N/A   Clear
1:36 AM 42.8 °F - 41.0 °F 93% 30.18 in 4.0 mi Calm Calm - N/A   Clear
1:53 AM 41.0 °F 38.0 °F 39.9 °F 96% 30.17 in 2.5 mi West 4.6 mph - N/A   Clear
1:55 AM 41.0 °F 38.0 °F 39.2 °F 93% 30.18 in 1.0 mi West 4.6 mph - N/A   Mist
1:59 AM 39.2 °F 37.0 °F 39.2 °F 100% 30.18 in 0.5 mi West 3.5 mph - N/A Fog Fog
2:06 AM 41.0 °F 38.0 °F 39.2 °F 93% 30.18 in 0.2 mi West 4.6 mph - N/A Fog Fog
2:32 AM 39.2 °F - 39.2 °F 100% 30.17 in 0.2 mi Calm Calm - N/A Fog Fog
2:53 AM 39.0 °F - 39.0 °F 100% 30.15 in 0.8 mi Calm Calm - N/A   Mist
3:17 AM 37.4 °F - 37.4 °F 100% 30.16 in 0.2 mi Calm Calm - N/A Fog Fog
3:53 AM 37.9 °F - 37.9 °F 100% 30.13 in 0.2 mi Calm Calm - N/A Fog Fog
4:53 AM 37.0 °F - 37.0 °F 100% 30.13 in 0.2 mi Calm Calm - N/A Fog Fog
5:53 AM 37.0 °F - 37.0 °F 100% 30.13 in 0.2 mi Calm Calm - N/A Fog Fog
6:53 AM 37.0 °F 34.5 °F 37.0 °F 100% 30.14 in 0.2 mi WSW 3.5 mph - N/A Fog Fog
6:59 AM 35.6 °F 32.8 °F 35.6 °F 100% 30.14 in 0.5 mi West 3.5 mph - N/A Fog Fog
7:04 AM 35.6 °F 32.8 °F 35.6 °F 100% 30.15 in 1.0 mi WNW 3.5 mph - N/A   Mist
7:06 AM 37.4 °F 34.9 °F 35.6 °F 93% 30.15 in 1.5 mi West 3.5 mph - N/A   Scattered Clouds
7:09 AM 37.4 °F 34.9 °F 37.4 °F 100% 30.15 in 3.0 mi West 3.5 mph - N/A   Mostly Cloudy
7:20 AM 37.4 °F 34.9 °F 37.4 °F 100% 30.15 in 1.8 mi West 3.5 mph - N/A   Mostly Cloudy
7:30 AM 37.4 °F 34.9 °F 37.4 °F 100% 30.15 in 2.0 mi WNW 3.5 mph - N/A   Scattered Clouds
7:42 AM 39.2 °F 37.0 °F 39.2 °F 100% 30.15 in 4.0 mi WNW 3.5 mph - N/A   Partly Cloudy
7:53 AM 39.9 °F 37.8 °F 39.0 °F 97% 30.16 in 6.0 mi West 3.5 mph - N/A   Clear
8:53 AM 46.0 °F 44.8 °F 43.0 °F 89% 30.17 in 10.0 mi ESE 3.5 mph - N/A   Clear
9:53 AM 51.1 °F - 45.0 °F 80% 30.16 in 10.0 mi East 4.6 mph - N/A   Clear
10:53 AM 59.0 °F - 48.0 °F 67% 30.14 in 10.0 mi ESE 6.9 mph - N/A   Clear
11:53 AM 64.0 °F - 48.0 °F 56% 30.13 in 10.0 mi SE 8.1 mph - N/A   Clear
12:53 PM 70.0 °F - 43.0 °F 38% 30.10 in 10.0 mi ESE 10.4 mph - N/A   Clear
1:53 PM 71.1 °F - 39.0 °F 31% 30.07 in 10.0 mi South 9.2 mph - N/A   Clear
2:53 PM 73.9 °F - 39.0 °F 28% 30.04 in 10.0 mi Variable 6.9 mph - N/A   Clear
3:53 PM 77.0 °F - 37.9 °F 24% 29.99 in 10.0 mi SE 13.8 mph 17.3 mph N/A   Clear
4:53 PM 77.0 °F - 37.9 °F 24% 29.96 in 10.0 mi SE 13.8 mph 18.4 mph N/A   Clear
5:53 PM 75.9 °F - 37.0 °F 24% 29.94 in 10.0 mi SSE 8.1 mph 17.3 mph N/A   Clear
6:53 PM 73.9 °F - 39.0 °F 28% 29.94 in 10.0 mi South 13.8 mph 19.6 mph N/A   Clear
7:53 PM 70.0 °F - 41.0 °F 35% 29.94 in 10.0 mi SE 11.5 mph - N/A   Clear
8:53 PM 63.0 °F - 39.9 °F 43% 29.94 in 10.0 mi SE 8.1 mph - N/A   Clear
9:53 PM 59.0 °F - 41.0 °F 51% 29.96 in 10.0 mi SSE 8.1 mph - N/A   Clear
10:53 PM 55.9 °F - 44.1 °F 64% 29.96 in 10.0 mi South 4.6 mph - N/A   Clear
11:53 PM 55.9 °F - 45.0 °F 67% 29.95 in 10.0 mi South 6.9 mph - N/A   Clear